Simultaneous Nadir Overpasses (SNOs) Predictions

Prediction of SNOs between NOAA-21 and PACE Satellite Orbit:

Table of predicted SNOs for the next 14.0 days since TLE Epoch: 11/9/2024
Index Date (NOAA-21) Time (NOAA-21) Lat,Lon (NOAA-21) SZA (NOAA-21 ) Date (PACE) Time (PACE) Lat,Lon (PACE) SZA (PACE ) Distance(km) Time Diff (sec)
1 11/10/2024 05:28:15 80.25, 57.08 99.36 11/10/2024 05:28:58 80.24, 57.18 99.32 1.97 43
2 11/10/2024 06:18:54 -80.09,-133.83 80.94 11/10/2024 06:18:02 -80.09,-133.77 80.93 1.08 52
3 11/12/2024 09:04:02 -80.21,-176.45 80.13 11/12/2024 09:05:00 -80.21,-176.56 80.14 2.05 58
4 11/12/2024 09:54:44 80.12, -8.13 99.71 11/12/2024 09:54:06 80.12, -8.04 99.71 1.82 38
5 11/14/2024 12:39:51 80.23, -50.61 100.48 11/14/2024 12:41:02 80.23, -50.72 100.46 2.12 71
6 11/14/2024 13:30:33 -80.15, 117.62 79.68 11/14/2024 13:30:08 -80.14, 117.75 79.68 2.42 25
7 11/16/2024 17:06:21 80.15,-116.38 100.88 11/16/2024 17:06:08 80.15,-116.32 100.88 1.24 13
8 11/18/2024 20:42:06 -80.11, 10.09 78.68 11/18/2024 20:42:04 -80.11, 10.00 78.66 1.78 2



Historial Predications of SNOs between NOAA-21 and PACE
